Wind_Speed
11 11 11 10 10 11 11 10 9 9 10 9 9 10 13 14 13 10 10 9 10 10 9 9 9 9 9 9 8 8 7 6 6 5 5 3 3 2 2 1 1 2 3 3
11 11 11 12 13 14 15 12 10 12 12 11 11 12 12 14 14 12 11 11 11 11 9 9 10 10 9 8 8 7 7 6 6 5 4 4 3 2 1 1 1 2 2 3
10 10 12 12 14 16 16 14 13 14 14 12 12 14 14 14 14 14 13 13 12 12 10 9 9 9 9 8 7 7 7 7 7 6 5 4 4 4 3 3 3 3 2 2
12 12 14 14 15 15 15 15 15 15 15 14 14 17 17 17 15 14 14 13 13 13 11 11 10 10 9 8 8 8 8 8 7 7 6 6 6 5 4 4 5 5 4 5
13 15 16 15 16 16 17 17 18 17 17 17 17 19 19 18 15 13 13 13 14 13 13 12 11 11 10 10 10 9 9 9 8 8 7 7 7 7 6 6 6 6 6 6
15 15 16 16 17 18 17 16 16 17 18 20 18 20 22 20 18 17 15 13 15 15 16 15 14 13 12 12 12 12 11 11 10 10 9 9 8 8 8 8 8 8 8 8
16 17 17 17 17 17 16 15 16 17 19 19 16 19 22 21 21 19 17 15 16 17 18 18 16 15 14 14 14 13 12 12 11 11 10 10 10 10 10 10 10 10 10 10
16 17 17 17 18 17 17 17 18 18 18 17 15 18 18 19 21 21 18 17 19 18 19 19 18 16 15 15 14 14 14 13 12 12 12 11 11 11 11 11 12 12 12 12
17 17 18 19 19 19 19 20 19 19 20 20 19 18 19 18 18 19 18 18 19 19 19 21 20 18 17 16 16 15 15 15 14 14 13 13 13 12 12 12 12 13 13 13
19 19 18 19 21 20 19 18 19 20 21 22 20 19 20 18 17 18 19 20 21 19 20 21 21 19 19 18 17 17 17 16 16 15 15 15 15 15 15 14 14 14 15 16
22 22 19 19 20 19 18 18 20 21 21 20 20 22 22 22 22 22 22 22 22 22 21 22 22 21 20 20 19 18 18 18 18 18 18 18 17 17 17 17 17 17 17 18
23 23 22 21 20 22 21 20 20 22 23 22 22 24 23 20 22 22 22 24 24 24 23 22 23 24 22 22 21 21 20 20 20 20 20 20 19 19 19 19 19 19 19 20
25 24 23 21 20 21 23 22 21 22 23 23 24 26 24 21 22 23 25 28 27 27 26 25 25 25 24 24 24 23 23 22 22 22 22 21 21 21 21 21 21 21 21 22
27 26 24 22 21 20 21 22 22 23 24 25 25 25 25 24 24 26 28 28 28 28 28 28 28 26 26 26 26 26 25 25 24 24 24 23 23 23 23 23 23 23 23 23
29 28 27 26 24 23 22 23 23 24 25 26 26 27 28 28 27 29 31 31 30 29 29 29 29 29 29 29 28 28 28 28 27 27 27 26 26 26 26 25 25 25 26 26
29 30 29 29 27 26 26 24 26 26 25 27 28 29 30 31 30 31 33 34 33 32 31 31 30 30 30 31 31 30 30 30 30 29 29 29 28 28 28 28 27 27 28 28
30 30 31 29 27 28 29 26 25 26 26 26 28 30 31 32 30 31 33 35 36 33 32 32 32 31 31 32 33 32 32 32 32 32 32 31 30 30 29 29 30 30 30 29
31 30 29 28 27 28 27 26 26 27 26 27 29 31 32 33 33 33 35 36 35 35 34 33 33 33 33 34 34 34 34 35 34 34 34 34 33 32 32 32 31 31 32 31
31 30 30 28 27 27 26 27 27 28 29 30 31 31 32 33 33 34 36 36 35 35 34 34 34 35 35 36 36 37 37 36 36 36 36 35 34 34 34 33 33 34 33 33
30 30 29 29 27 27 27 29 28 28 30 31 32 32 32 32 33 34 36 36 35 35 35 35 35 35 36 36 37 38 38 38 37 37 36 35 34 35 35 34 35 35 35 35
28 29 29 29 29 27 29 29 29 29 31 32 33 33 34 34 34 36 37 36 36 35 35 35 35 35 36 37 38 38 38 38 38 37 36 36 36 36 36 36 36 36 37 37
27 28 28 28 28 28 31 32 32 32 33 34 34 33 34 34 34 35 36 36 36 36 35 36 36 36 37 37 38 38 38 38 38 38 38 38 38 38 38 38 38 38 38 38
27 26 26 28 29 31 32 34 34 34 34 35 35 35 34 34 34 35 36 36 36 37 37 37 37 38 38 38 39 39 38 38 38 39 39 40 40 40 40 40 39 39 39 40
28 28 29 31 32 32 34 35 34 34 35 36 36 36 35 35 35 36 36 36 37 38 37 38 38 38 38 39 39 40 40 40 39 40 41 41 41 41 41 41 41 41 41 41
28 29 30 31 32 33 35 35 34 35 36 36 36 36 36 36 36 38 36 35 36 37 36 37 37 38 38 38 38 39 39 39 39 39 40 41 41 42 41 41 41 41 41 41
29 29 30 30 31 32 32 32 33 34 34 34 34 35 37 36 35 33 33 35 35 35 36 37 37 37 37 38 37 37 37 38 38 38 39 39 38 39 40 40 40 39 39 40
Wind_Direction
224 225 225 229 234 239 243 247 251 249 263 271 278 291 297 303 311 318 323 329 338 343 353 354 358 1 2 2 5 9 12 13 14 18 26 31 42 63 93 104 176 208 210 221
231 234 232 230 231 235 238 242 252 257 259 263 265 272 286 290 297 301 307 315 320 326 336 342 347 347 348 350 355 360 1 359 357 346 350 6 8 354 315 299 293 262 253 250
234 237 246 240 237 235 243 243 247 260 266 264 264 268 273 276 283 287 294 304 309 314 321 330 335 335 335 340 346 348 345 342 343 336 327 324 324 323 306 289 299 288 271 272
238 238 241 244 242 241 247 247 249 255 262 266 266 267 272 277 280 286 292 297 300 303 307 312 316 321 325 326 326 328 334 334 331 331 317 304 300 297 296 300 307 306 300 287
244 245 242 244 243 237 240 246 248 250 254 258 259 262 269 272 267 270 275 283 288 293 300 304 305 307 312 313 314 315 316 319 317 312 309 303 293 288 289 293 294 294 296 293
245 246 247 246 244 243 243 247 251 252 254 256 256 260 263 263 266 264 262 270 282 287 291 293 294 296 300 303 307 310 308 308 306 307 304 301 299 291 289 288 286 286 284 287
253 250 250 251 248 244 243 244 251 257 260 264 264 259 264 266 268 270 270 277 279 281 284 286 286 287 292 296 300 304 306 305 301 300 299 298 294 290 286 285 281 281 281 283
257 258 255 253 250 243 239 239 243 249 260 269 265 256 262 268 271 274 271 274 275 277 280 283 282 280 283 288 293 294 299 301 300 297 293 293 293 292 288 284 281 281 281 282
246 253 255 251 251 246 242 239 243 254 259 262 259 261 262 258 264 271 271 270 271 273 274 277 278 277 278 281 284 286 290 294 294 293 291 288 289 288 287 285 284 283 279 280
236 241 246 255 256 251 244 241 243 243 251 255 257 256 258 255 256 261 265 266 272 272 274 275 277 274 273 275 278 282 282 286 288 287 286 286 285 284 283 283 285 284 281 279
242 241 242 248 252 248 244 239 241 244 245 252 257 259 259 260 262 262 261 262 266 269 272 272 273 273 273 273 275 277 279 281 282 281 281 281 282 283 283 285 284 282 281 281
248 247 244 243 248 250 243 242 245 248 250 248 255 263 265 265 268 267 267 267 268 270 272 272 271 271 270 271 271 273 275 279 279 278 279 278 280 282 283 283 283 282 281 282
246 245 246 245 243 249 251 246 246 248 253 255 256 263 265 261 264 267 268 269 268 267 269 269 268 269 270 271 270 272 274 277 278 277 276 276 277 279 280 280 280 280 280 280
249 246 243 245 246 246 248 247 245 246 249 254 256 259 262 263 262 264 266 268 268 268 269 269 269 268 269 270 270 271 272 274 276 276 276 276 276 277 278 277 279 281 280 279
249 250 247 244 245 246 245 247 247 249 249 251 255 258 260 258 256 260 263 265 267 268 270 269 267 266 268 269 269 270 270 272 273 274 273 273 274 275 276 277 279 280 281 280
252 251 250 248 245 248 248 246 244 246 250 251 252 254 258 262 259 260 264 267 267 268 269 269 268 267 266 267 267 268 270 270 271 271 272 272 273 274 274 275 276 277 278 280
257 256 253 251 248 248 248 249 247 246 248 251 253 255 257 259 261 260 264 265 267 268 267 267 267 266 265 265 265 266 270 269 268 269 270 272 271 271 272 273 275 277 279 280
257 257 256 254 250 250 249 249 252 252 252 253 254 255 258 260 263 264 264 265 266 268 268 268 268 267 265 265 266 266 268 268 267 268 269 271 272 272 271 272 275 276 277 278
255 256 255 254 253 253 251 251 253 253 255 256 257 258 260 261 261 263 264 265 267 268 268 268 268 267 266 265 266 266 267 266 267 267 267 269 272 271 270 272 274 275 276 277
254 255 254 252 251 250 251 253 256 256 257 258 258 259 260 261 262 263 265 267 267 268 269 269 269 269 268 267 266 265 267 268 267 266 267 268 270 270 270 271 272 274 275 277
255 256 255 253 253 252 251 252 256 256 257 260 261 261 261 260 262 265 266 266 267 268 269 270 271 270 269 268 267 267 267 268 266 267 268 268 269 269 269 269 271 272 274 276
253 255 255 254 252 251 252 253 254 257 259 260 262 264 264 265 266 266 265 265 266 267 268 269 270 271 271 269 268 267 267 268 267 267 268 268 268 268 268 268 269 271 273 275
248 248 248 250 252 252 253 255 255 257 260 260 263 266 267 267 266 265 267 268 267 266 267 268 270 271 270 269 267 267 267 267 266 266 267 267 266 266 267 268 269 271 272 274
249 249 249 249 251 254 255 256 258 259 260 261 262 265 268 268 267 267 266 266 267 267 269 269 269 270 271 270 269 267 267 266 266 265 265 267 267 266 267 268 269 270 272 274
249 253 254 254 255 258 257 260 260 259 261 262 264 264 266 269 269 268 267 267 267 268 269 269 270 271 271 271 269 267 266 266 265 265 265 266 268 268 268 269 270 271 271 273
251 254 257 258 260 261 263 265 263 261 263 265 266 266 268 269 269 269 270 270 269 269 269 270 270 270 271 271 269 266 266 266 265 265 266 266 268 268 270 271 272 272 272 272
Height
5890 5892 5894 5897 5900 5902 5904 5905 5906 5908 5908 5908 5908 5907 5905 5902 5901 5901 5900 5899 5898 5897 5896 5894 5893 5892 5891 5890 5889 5889 5888 5888 5888 5887 5887 5887 5887 5887 5888 5888 5889 5890 5891 5892
5889 5891 5893 5895 5898 5900 5901 5903 5905 5905 5906 5907 5907 5906 5906 5902 5901 5900 5899 5899 5898 5897 5896 5894 5893 5892 5891 5891 5890 5889 5889 5889 5888 5888 5888 5887 5888 5888 5889 5889 5890 5890 5891 5891
5887 5890 5891 5893 5895 5897 5899 5901 5902 5904 5903 5904 5905 5904 5904 5902 5900 5899 5898 5898 5898 5896 5896 5895 5894 5893 5892 5891 5890 5890 5889 5889 5889 5888 5888 5888 5888 5888 5889 5889 5890 5890 5891 5891
5885 5887 5889 5891 5892 5894 5895 5897 5899 5901 5902 5902 5903 5902 5900 5899 5898 5898 5897 5896 5896 5895 5895 5894 5893 5892 5891 5891 5890 5890 5889 5889 5889 5888 5888 5888 5888 5888 5889 5889 5889 5890 5890 5890
5883 5884 5886 5887 5889 5891 5892 5895 5896 5897 5898 5898 5899 5899 5898 5895 5894 5894 5894 5894 5894 5893 5893 5893 5892 5891 5891 5890 5890 5889 5889 5889 5888 5888 5888 5888 5888 5888 5888 5888 5889 5889 5889 5889
5879 5881 5882 5884 5886 5887 5889 5891 5892 5893 5894 5894 5895 5896 5894 5892 5891 5890 5890 5891 5892 5891 5891 5890 5890 5890 5889 5889 5889 5888 5888 5888 5887 5887 5887 5887 5886 5886 5887 5887 5887 5888 5888 5888
5875 5878 5879 5880 5881 5883 5885 5888 5890 5890 5890 5890 5892 5892 5890 5888 5889 5888 5888 5888 5890 5889 5888 5888 5888 5888 5888 5887 5887 5887 5886 5886 5886 5886 5885 5885 5885 5885 5885 5885 5886 5886 5886 5886
5873 5874 5875 5876 5877 5879 5881 5884 5886 5887 5888 5888 5887 5887 5886 5886 5886 5886 5884 5885 5886 5886 5885 5885 5885 5885 5885 5885 5885 5884 5884 5884 5884 5884 5884 5883 5883 5883 5883 5883 5883 5883 5884 5884
5868 5871 5871 5871 5872 5874 5876 5878 5882 5884 5883 5883 5883 5883 5882 5881 5883 5882 5882 5881 5881 5882 5882 5881 5881 5882 5882 5882 5882 5882 5882 5881 5881 5881 5881 5881 5881 5881 5881 5881 5881 5881 5881 5881
5861 5864 5867 5867 5868 5869 5871 5874 5876 5878 5878 5878 5879 5879 5878 5876 5877 5879 5879 5878 5877 5878 5878 5877 5877 5877 5878 5878 5879 5879 5878 5878 5878 5878 5878 5878 5878 5878 5878 5878 5878 5877 5877 5877
5856 5858 5861 5863 5863 5865 5867 5868 5870 5872 5873 5874 5874 5875 5873 5873 5872 5873 5872 5872 5872 5873 5873 5873 5873 5873 5873 5874 5874 5875 5875 5874 5874 5874 5874 5874 5874 5874 5874 5874 5874 5873 5873 5873
5849 5852 5854 5857 5859 5859 5861 5863 5865 5867 5867 5868 5868 5870 5867 5867 5868 5867 5865 5865 5867 5867 5867 5867 5868 5868 5869 5869 5870 5870 5870 5870 5870 5870 5870 5870 5870 5870 5870 5870 5869 5869 5869 5868
5842 5845 5847 5850 5855 5854 5854 5856 5858 5860 5862 5862 5864 5865 5862 5860 5862 5861 5861 5860 5861 5862 5862 5862 5863 5863 5863 5864 5864 5865 5865 5865 5865 5864 5864 5864 5865 5865 5865 5864 5864 5864 5863 5863
5835 5837 5841 5844 5845 5847 5848 5849 5851 5853 5855 5856 5857 5857 5857 5855 5855 5854 5853 5853 5854 5855 5856 5856 5857 5857 5858 5858 5858 5859 5859 5859 5859 5859 5858 5859 5859 5859 5859 5858 5858 5858 5857 5857
5828 5830 5832 5835 5837 5839 5841 5843 5844 5846 5847 5849 5850 5850 5849 5848 5848 5847 5846 5847 5847 5847 5848 5849 5850 5850 5851 5851 5852 5852 5852 5852 5852 5852 5852 5853 5852 5852 5852 5852 5851 5851 5851 5850
5819 5822 5824 5826 5829 5831 5832 5834 5836 5838 5838 5839 5841 5841 5841 5839 5840 5840 5840 5839 5840 5840 5841 5841 5842 5843 5843 5844 5844 5845 5845 5845 5845 5845 5845 5845 5845 5845 5845 5845 5844 5844 5844 5844
5812 5814 5816 5818 5821 5822 5824 5826 5827 5828 5829 5831 5832 5832 5831 5830 5831 5831 5832 5832 5832 5833 5832 5832 5834 5835 5835 5835 5836 5836 5836 5836 5836 5836 5837 5837 5837 5837 5837 5837 5837 5836 5836 5836
5804 5805 5807 5810 5813 5813 5818 5819 5819 5819 5821 5822 5822 5822 5823 5823 5823 5823 5823 5823 5824 5824 5823 5824 5825 5826 5826 5827 5827 5827 5827 5826 5827 5828 5828 5828 5829 5829 5829 5829 5829 5829 5828 5828
5795 5797 5799 5802 5804 5806 5809 5809 5810 5811 5812 5812 5813 5813 5814 5814 5814 5814 5813 5814 5814 5815 5814 5815 5815 5816 5817 5817 5818 5818 5817 5817 5817 5818 5819 5819 5820 5820 5820 5820 5821 5820 5820 5819
5787 5789 5792 5794 5796 5798 5801 5801 5801 5804 5802 5802 5803 5803 5804 5805 5805 5805 5804 5804 5805 5805 5804 5805 5806 5806 5807 5807 5807 5807 5807 5807 5808 5808 5809 5809 5810 5811 5811 5811 5811 5811 5811 5810
5779 5781 5783 5785 5787 5789 5791 5791 5793 5795 5793 5793 5793 5794 5794 5795 5795 5795 5795 5795 5795 5795 5795 5795 5796 5796 5797 5796 5796 5797 5797 5798 5798 5799 5799 5799 5800 5801 5801 5801 5801 5801 5801 5801
5772 5774 5775 5777 5779 5782 5780 5781 5783 5783 5783 5783 5783 5784 5785 5785 5785 5785 5784 5784 5785 5786 5786 5786 5786 5786 5786 5786 5786 5786 5787 5787 5787 5788 5789 5789 5789 5789 5790 5791 5791 5791 5791 5791
5764 5766 5767 5769 5771 5769 5771 5771 5772 5773 5774 5774 5775 5775 5775 5775 5775 5774 5774 5775 5775 5775 5775 5776 5776 5776 5776 5775 5775 5775 5775 5776 5776 5777 5778 5778 5778 5778 5779 5779 5780 5780 5780 5780
5756 5757 5759 5760 5760 5760 5761 5761 5762 5763 5764 5765 5765 5765 5765 5765 5765 5764 5763 5764 5765 5765 5765 5765 5765 5765 5765 5764 5763 5763 5763 5764 5765 5765 5766 5766 5766 5767 5767 5768 5768 5769 5769 5769
5746 5747 5749 5750 5751 5751 5751 5750 5752 5754 5754 5755 5755 5755 5756 5755 5754 5753 5753 5754 5754 5754 5754 5754 5753 5753 5753 5753 5752 5751 5751 5752 5753 5754 5754 5755 5755 5756 5755 5756 5756 5757 5757 5758
5740 5740 5741 5740 5741 5741 5741 5741 5742 5744 5744 5744 5745 5745 5744 5744 5744 5742 5743 5743 5743 5743 5743 5743 5742 5742 5742 5741 5741 5740 5740 5741 5741 5742 5743 5744 5744 5745 5745 5745 5745 5746 5746 5746